Tracking 26955 objects as of 2-Feb-2023
HD Live streaming from Space Station
objects crossing your sky now

ONEWEB-0327

Track ONEWEB-0327 now!
10-day predictions
ONEWEB-0327 is classified as:


NORAD ID: 49196
Int'l Code: 2021-083L
Perigee: 1,195.2 km
Apogee: 1,198.6 km
Inclination: 87.9 °
Period: 109.2 minutes
Semi major axis: 7567 km
RCS: Unknown
Launch date: September 14, 2021
Source: United Kingdom (UK)
Launch site: TYURATAM MISSILE AND SPACE COMPLEX (TTMTR)
Your satellite tracking list
Your tracking list is empty




NASA's NSSDC Master Catalog

Two Line Element Set (TLE):
1 49196U 21083L   23033.49058077  .00000048  00000-0  87768-4 0  9996
2 49196  87.9193 219.9371 0002225 109.6514 250.4858 13.18682115 67828
Source of the keplerian elements: AFSPC